Weather reports worldwide

Advertisment
Hyeres, France (7667): temperature & dewpoint: 16.02.2019 22:00:00 - 22.02.2019 22:00:00 (CET)Hyeres, France (7667): temperature 5cm: 16.02.2019 22:00:00 - 22.02.2019 22:00:00 (CET)Hyeres, France (7667): wind speed & gusts: 16.02.2019 22:00:00 - 22.02.2019 22:00:00 (CET)Hyeres, France (7667): wind direction: 16.02.2019 22:00:00 - 22.02.2019 22:00:00 (CET)Hyeres, France (7667): reduced air pressure: 16.02.2019 22:00:00 - 22.02.2019 22:00:00 (CET)Hyeres, France (7667): visibility: 16.02.2019 22:00:00 - 22.02.2019 22:00:00 (CET)Hyeres, France (7667): precipitation: 16.02.2019 22:00:00 - 22.02.2019 22:00:00 (CET)
Date & Time tt [°C] td [°C] tt 5cm [°C] ff [km/h] ff [kn] fx [km/h] fx [kn] dd ppp [hPa] vv [km] rr [mm]
22.02.2019 22:00:00 5,3 4,3 1,3 6 3 9 5 NNE 1025,6 2,5 0,0
22.02.2019 21:00:00 7,2 6,0 1,8 3 2 7 4 NNW 1025,0 1,6 0,0
22.02.2019 20:00:00 9,2 7,6 4,6 4 2 9 5 NNW 1024,6 4,2 0,0
22.02.2019 19:00:00 11,7 9,3 9,2 11 6 19 10 SW 1023,9 8 0,0
22.02.2019 18:00:00 12,7 9,7 10,5 11 6 25 13 SW 1023,7 10 0,0
22.02.2019 17:00:00 13,6 9,8 14,1 17 9 26 14 SSW 1023,8 14 0,0
22.02.2019 16:00:00 14,5 10,3 17,0 21 11 29 16 SW 1024,0 13 0,0
22.02.2019 15:00:00 14,4 9,6 18,6 20 11 29 16 SW 1024,2 17 0,0
22.02.2019 14:00:00 14,3 9,7 18,8 22 12 31 17 SW 1024,6 15 0,0
22.02.2019 13:00:00 14,7 9,1 19,6 16 9 24 13 SSW 1025,0 18 0,0
22.02.2019 12:00:00 15,0 8,9 23,3 8 5 16 9 S 1025,8 13 0,0
22.02.2019 11:00:00 13,8 8,4 16,6 6 3 13 7 WSW 1026,3 10 0,0
22.02.2019 10:00:00 11,6 8,4 12,2 9 5 16 9 NW 1026,7 6 0,0
22.02.2019 09:00:00 9,5 7,6 6,0 13 7 21 12 NNW 1026,9 7 0,2
22.02.2019 08:00:00 7,0 5,9 3,2 10 6 15 8 NNW 1026,5 5 0,0
22.02.2019 07:00:00 6,0 5,1 2,7 10 5 13 7 NNW 1026,0 6 0,0
22.02.2019 06:00:00 6,1 5,1 0,4 8 4 13 7 NNW 1026,1 6 0,0
22.02.2019 05:00:00 4,8 4,2 -0,2 8 4 13 7 NW 1026,2 7 0,0
22.02.2019 04:00:00 2,7 2,0 0,1 6 3 10 6 N 1026,2 3,2 0,0
22.02.2019 03:00:00 4,6 4,0 -0,5 4 2 9 5 N 1026,7 4,1 0,0
22.02.2019 02:00:00 4,2 3,5 0,6 6 3 10 6 NNE 1027,2 3,6 0,0
22.02.2019 01:00:00 4,9 4,2 1,5 3 2 9 5 NNE 1027,8 3,9 0,0
22.02.2019 00:00:00 5,7 4,0 2,3 6 3 8 4 NNW 1028,0 6 0,0
21.02.2019 23:00:00 8,5 5,6 3,8 4 2 7 4 NW 1028,2 8 0,0
21.02.2019 22:00:00 10,3 6,3 5,5 4 2 15 8 NW 1028,4 11 0,0
21.02.2019 21:00:00 11,5 7,8 6,2 7 4 18 10 W 1028,2 15 0,0
21.02.2019 20:00:00 11,7 8,5 8,6 7 4 17 9 W 1028,0 18 0,0
21.02.2019 19:00:00 11,9 8,6 9,5 11 6 23 12 WSW 1028,1 20 0,0
21.02.2019 18:00:00 12,7 8,4 10,9 17 9 33 18 WSW 1027,9 22 0,0
21.02.2019 17:00:00 13,8 8,2 14,4 22 12 40 22 WSW 1028,0 15 0,0
21.02.2019 16:00:00 14,2 9,2 16,7 28 15 40 22 SW 1028,2 19 0,0
21.02.2019 15:00:00 14,1 9,1 17,2 27 14 43 23 SW 1028,3 17 0,0
21.02.2019 14:00:00 14,3 9,3 17,9 25 14 40 22 SW 1028,5 14 0,0
21.02.2019 13:00:00 14,4 9,2 18,4 29 16 37 20 SW 1029,0 14 0,0
21.02.2019 12:00:00 13,8 8,0 18,4 17 9 27 14 SW 1029,5 18 0,0
21.02.2019 11:00:00 13,9 7,2 19,6 4 2 10 5 SSW 1029,5 18 0,0
21.02.2019 10:00:00 10,8 6,2 12,8 0 0 12 6 N 1029,4 18 0,0
21.02.2019 09:00:00 7,8 6,1 1,4 5 3 10 5 NNW 1029,3 8 0,0
21.02.2019 08:00:00 3,4 2,4 -1,5 7 4 11 6 NNW 1028,6 10 0,0
21.02.2019 07:00:00 2,5 1,2 -1,3 6 4 9 5 NNW 1028,0 10 0,0
21.02.2019 06:00:00 3,5 2,3 -1,3 4 2 9 5 NNW 1027,9 11 0,2
21.02.2019 05:00:00 3,5 2,5 -1,4 5 3 12 6 NNW 1027,5 10 0,0
21.02.2019 04:00:00 3,1 2,1 -0,9 7 4 10 5 NNW 1027,5 10 0,0
21.02.2019 03:00:00 3,5 2,3 -0,3 5 3 9 5 NNW 1027,6 13 0,0
21.02.2019 02:00:00 4,6 2,8 -0,1 5 3 11 6 NNW 1027,4 11 0,0
21.02.2019 01:00:00 4,4 3,4 -0,6 5 3 12 6 N 1027,3 11 0,0
21.02.2019 00:00:00 4,1 2,9 -0,8 5 3 8 5 NNW 1027,0 8 0,0
20.02.2019 23:00:00 3,6 2,6 0,0 5 3 9 5 N 1026,9 5 0,0
20.02.2019 22:00:00 4,9 3,1 0,2 5 3 8 4 NNE 1026,8 6 0,0
20.02.2019 21:00:00 6,7 4,4 1,2 3 2 9 5 N 1026,3 9 0,0
20.02.2019 20:00:00 10,7 6,1 3,9 0 0 10 5 N 1026,0 18 0,0
20.02.2019 19:00:00 10,8 5,1 3,5 5 3 14 8 SW 1025,6 29 0,0
20.02.2019 18:00:00 12,0 6,1 9,4 10 5 22 12 WSW 1025,2 31 0,0
20.02.2019 17:00:00 13,0 6,1 14,2 16 9 23 13 SW 1025,0 34 0,0
20.02.2019 16:00:00 13,5 6,6 16,9 16 8 25 13 SW 1025,2 20 0,0
20.02.2019 15:00:00 13,8 5,9 18,3 14 8 26 14 SW 1025,4 20 0,0
20.02.2019 14:00:00 13,8 6,2 19,5 12 6 19 11 SSW 1025,6 20 0,0
20.02.2019 13:00:00 14,2 6,0 16,5 11 6 16 9 SSE 1025,8 59 0,0
20.02.2019 12:00:00 13,9 4,7 20,6 8 5 16 8 SE 1026,1 45 0,0
20.02.2019 11:00:00 14,3 5,1 17,8 4 2 10 6 NNE 1025,9 42 0,0
20.02.2019 10:00:00 11,1 5,8 12,8 6 3 10 6 NW 1025,6 18 0,0
20.02.2019 09:00:00 8,8 5,4 4,7 5 3 12 6 NNW 1025,2 18 0,0
20.02.2019 08:00:00 5,5 3,7 1,6 8 4 15 8 NNW 1024,6 18 0,0
20.02.2019 07:00:00 4,8 3,0 1,5 5 3 11 6 NNW 1024,0 17 0,0
20.02.2019 06:00:00 4,5 3,0 0,3 7 4 11 6 NNW 1024,0 17 0,0
20.02.2019 05:00:00 4,0 2,5 -0,4 7 4 9 5 N 1023,9 16 0,0
20.02.2019 04:00:00 3,7 1,7 -0,1 5 3 13 7 N 1024,0 18 0,0
20.02.2019 03:00:00 5,2 3,4 0,8 7 4 12 6 NW 1024,2 18 0,0
20.02.2019 02:00:00 5,2 3,0 1,2 11 6 14 7 NW 1024,1 18 0,0
20.02.2019 01:00:00 5,5 3,3 1,4 8 5 12 6 NW 1024,0 20 0,0
20.02.2019 00:00:00 4,8 2,7 -0,2 7 4 14 8 NW 1023,7 19 0,0
19.02.2019 23:00:00 5,0 2,9 -0,5 8 4 11 6 NW 1023,7 13 0,0
19.02.2019 22:00:00 4,3 2,5 -0,2 4 2 6 3 NNE 1023,8 5 0,0
19.02.2019 21:00:00 5,7 3,5 0,6 0 0 10 5 N 1023,3 10 0,0
19.02.2019 20:00:00 8,2 3,4 2,3 4 2 8 4 N 1023,1 26 0,0
19.02.2019 19:00:00 10,5 4,8 4,4 3 1 20 11 WSW 1022,9 45 0,0
19.02.2019 18:00:00 11,7 4,7 9,2 13 7 22 12 SW 1022,5 54 0,0
19.02.2019 17:00:00 12,9 4,3 14,3 15 8 25 13 SW 1022,6 55 0,0
19.02.2019 16:00:00 13,5 4,6 17,1 15 8 25 13 SW 1022,7 60 0,0
19.02.2019 15:00:00 13,2 4,1 18,3 13 7 23 12 SSW 1022,9 60 0,0
19.02.2019 14:00:00 13,4 4,5 18,4 13 7 22 12 S 1023,4 60 0,0
19.02.2019 13:00:00 13,7 4,6 14,3 6 4 15 8 SW 1024,0 20 0,0
19.02.2019 12:00:00 13,1 4,3 16,1 5 3 14 8 WNW 1024,8 51 0,0
19.02.2019 11:00:00 11,6 3,6 13,9 7 4 16 9 N 1024,8 51 0,0
19.02.2019 10:00:00 11,0 4,4 10,1 7 4 13 7 N 1024,7 48 0,0
19.02.2019 09:00:00 8,9 5,3 7,4 5 3 14 8 N 1024,4 21 0,0
19.02.2019 08:00:00 8,2 4,8 6,5 6 4 10 6 N 1023,9 26 0,0
19.02.2019 07:00:00 7,6 5,4 6,2 5 3 9 5 NNW 1023,4 23 0,0
19.02.2019 06:00:00 7,9 5,4 6,7 6 3 11 6 NNW 1023,5 23 0,0
19.02.2019 05:00:00 8,1 5,6 6,4 8 5 16 8 NW 1023,5 29 0,0
19.02.2019 04:00:00 7,7 5,3 5,4 9 5 16 8 NW 1023,3 31 0,0
19.02.2019 03:00:00 7,0 5,3 4,1 4 2 8 4 N 1023,7 28 0,0
19.02.2019 02:00:00 6,6 5,1 3,1 4 2 7 4 NNE 1024,1 24 0,2
19.02.2019 01:00:00 4,5 3,3 0,1 5 3 8 4 N 1024,5 20 0,0
19.02.2019 00:00:00 3,7 2,7 -0,4 5 3 8 4 NNW 1024,5 15 0,0
18.02.2019 23:00:00 3,0 1,7 -0,2 5 3 9 5 N 1024,6 10 0,0
18.02.2019 22:00:00 4,0 2,7 -0,4 5 3 8 4 N 1024,6 6 0,0
18.02.2019 21:00:00 5,6 3,8 0,1 5 3 7 4 N 1024,5 11 0,0
18.02.2019 20:00:00 6,9 3,9 1,4 5 3 6 3 N 1024,5 15 0,0
18.02.2019 19:00:00 9,5 4,7 2,1 3 2 8 5 S 1024,3 23 0,0
18.02.2019 18:00:00 11,9 5,3 9,0 7 4 14 8 S 1024,0 60 0,0
18.02.2019 17:00:00 13,1 5,5 16,1 9 5 14 8 S 1024,0 50 0,0
18.02.2019 16:00:00 13,6 6,0 19,2 9 5 18 10 S 1024,4 46 0,0
18.02.2019 15:00:00 13,7 5,8 19,6 10 5 17 9 SE 1024,6 19 0,0
18.02.2019 14:00:00 14,4 6,0 19,9 6 3 16 9 SSE 1025,3 20 0,0
18.02.2019 13:00:00 13,7 5,3 15,9 9 5 15 8 ESE 1026,0 19 0,0
18.02.2019 12:00:00 12,8 5,9 14,4 3 2 8 4 SE 1026,8 55 0,0
18.02.2019 11:00:00 11,2 6,9 10,4 3 2 8 5 N 1026,7 18 0,0
18.02.2019 10:00:00 9,1 6,4 7,7 4 2 8 4 NNW 1026,6 14 0,0
18.02.2019 09:00:00 7,6 5,9 5,5 5 3 9 5 N 1026,6 7 0,0
18.02.2019 08:00:00 6,5 5,4 4,9 7 4 9 5 N 1026,4 27 0,0
18.02.2019 07:00:00 6,0 5,0 2,9 5 3 9 5 N 1026,3 26 0,0
18.02.2019 06:00:00 4,5 3,8 1,3 5 3 9 5 N 1026,3 24 0,0
18.02.2019 05:00:00 3,7 2,8 2,1 7 4 9 5 N 1026,3 18 0,0
18.02.2019 04:00:00 5,3 4,7 0,6 6 3 10 5 NNW 1026,5 25 0,0
18.02.2019 03:00:00 3,4 2,8 -0,1 5 3 9 5 N 1026,9 17 0,0
18.02.2019 02:00:00 3,1 2,4 -0,2 6 3 8 4 N 1027,5 14 0,0
18.02.2019 01:00:00 3,6 2,9 0,0 4 2 7 4 N 1027,7 14 0,0
18.02.2019 00:00:00 3,9 3,2 0,1 5 3 8 5 N 1027,8 10 0,0
17.02.2019 23:00:00 5,3 4,4 0,6 5 3 8 4 N 1028,1 9 0,0
17.02.2019 22:00:00 5,8 4,6 1,8 6 3 7 4 NNE 1028,1 5 0,0
17.02.2019 21:00:00 6,6 5,2 1,7 4 2 5 3 NNE 1027,9 7 0,0
17.02.2019 20:00:00 7,7 5,8 1,7 3 2 8 4 N 1027,8 8 0,0
17.02.2019 19:00:00 9,4 5,9 2,9 0 0 8 5 N 1027,5 23 0,0
17.02.2019 18:00:00 12,2 7,3 9,0 6 3 13 7 SSW 1027,3 59 0,0
17.02.2019 17:00:00 13,4 7,8 12,8 10 5 16 9 SSW 1027,5 59 0,0
17.02.2019 16:00:00 14,4 8,3 18,5 11 6 22 12 SSW 1027,9 60 0,0
17.02.2019 15:00:00 14,7 8,9 19,2 10 6 18 10 S 1028,1 60 0,0
17.02.2019 14:00:00 14,2 8,8 20,1 9 5 16 9 SE 1028,6 59 0,0
17.02.2019 13:00:00 14,5 9,7 21,2 9 5 16 9 ESE 1029,2 31 0,0
17.02.2019 12:00:00 14,2 10,0 19,9 6 3 13 7 SE 1029,9 19 0,0
17.02.2019 11:00:00 14,4 10,4 16,3 4 2 7 4 NNE 1030,0 19 0,0
17.02.2019 10:00:00 11,1 8,1 12,0 4 2 8 4 NNW 1030,0 12 0,0
17.02.2019 09:00:00 7,9 6,5 3,2 5 3 8 5 N 1029,9 10 0,2
17.02.2019 08:00:00 4,7 4,0 -0,5 6 3 10 5 N 1029,7 3,9 0,0
17.02.2019 07:00:00 3,8 2,5 -0,8 5 3 9 5 NNW 1029,4 14 0,0
17.02.2019 06:00:00 2,5 1,3 -0,8 4 2 8 5 NNW 1029,3 16 0,0
17.02.2019 05:00:00 4,0 2,2 -0,1 5 3 8 4 N 1029,1 21 0,0
17.02.2019 04:00:00 3,7 2,7 -0,2 6 4 10 6 N 1029,3 20 0,0
17.02.2019 03:00:00 3,6 2,9 -0,3 6 3 9 5 N 1029,7 18 0,0
17.02.2019 02:00:00 3,0 2,3 -0,3 5 3 10 5 N 1029,9 12 0,0
17.02.2019 01:00:00 2,9 2,0 -0,4 8 4 9 5 NNE 1029,9 5 0,0
17.02.2019 00:00:00 4,5 3,5 -0,1 5 3 10 5 N 1029,7 9 0,0
16.02.2019 23:00:00 3,8 2,8 -0,4 7 4 10 6 N 1029,9 6 0,0
16.02.2019 22:00:00 5,0 4,0 -0,1 5 3 6 4 N 1030,1 4,8 0,0

tt = temperature
td = dewpoint
tt 5cm = temperature 5cm
ff = wind speed
fx = gusts
dd = wind direction
ppp = reduced air pressure
vv = visibility
rr = precipitation

Next stations